Погода в Белоусовке

Казахстан     50°07′54″N   82°31′21″E
темп.,
°C
ветер,
м/с
пор.,
м/с
влажн.,
%
обл.,
%
осадки,
мм/ч
давл.,
гПа
погр.,
м
25 февраля, чт
чт2500:00−5зсз5892100 6.3 1017355
03:00−9з4596100 0.6 1016309
06:00−12з5995100 2.8 1020505
09:00−15з5992100 0.6 1025664
12:00−16юз6975100 0.6 10281003
15:00−15юз91374100 0.0 10291552
18:00−16ю51193100 0.1 1030579
21:00−16ю61496100 0.4 10311441
26 февраля, пт
пт2600:00−18зюз71295100 0.9 10321071
03:00−22зюз4989100 0.1 1035423
06:00−24ююз3588100 0.1 1039139
09:00−25ю3691100 0.0 1041170
12:00−21ю588297 0.0 1041808
15:00−20ююз4779100 0.0 1041688
18:00−21ю2287100 0.0 104120
21:00−22ююв229499 0.0 104220
27 февраля, сб
сб2700:00−24ююв229393 0.0 104220
03:00−26юв119011 0.0 104220
06:00−27юв11896 0.0 104220
09:00−24вюв118932 0.0 104220
12:00−18ю238466 0.0 1040212
15:00−14ю3783100 0.0 1039587
18:00−17ююв338599 0.0 103924
21:00−18юв2382100 0.0 103922
28 февраля, вс
вс2800:00−18юв2281100 0.0 103922
03:00−17юв2380100 0.0 103832
06:00−18юв3379100 0.0 103831
09:00−16юв3108094 0.0 1037254
12:00−11ююв8147097 0.0 1034585
15:00−9ююв91666100 0.0 1032572
18:00−10юв71768100 0.0 1030478
21:00−10ююв51673100 0.0 1029459
1 марта, пн
пн100:00−9ююв41477100 0.4 1028427
03:00−9ююв51279100 1.0 1027455
06:00−8юв51387100 1.6 1026456
09:00−7юв51286100 0.3 1025450
12:00−5ююв71275100 0.4 1024722
15:00−5ююв81281100 0.3 1023728
18:00−6ююв71295100 2.2 1022503
21:00−6ююв61296100 3.1 1022565